Hollywood, FL

8:13 AM EDT on October 23, 2017 (GMT -0400)
North Perry

Weather History for KHWO - August, 2013

Change the Weather History Date:

Friday, August 9, 2013

  Actual Average (KFLL) Record (KFLL)
Temperature  
Mean Temperature 81 °F -  
Max Temperature 87 °F 89 °F 98 °F (1963)
Min Temperature 75 °F 75 °F 69 °F (1917)
Cooling Degree Days 16    
Growing Degree Days 31 (Base 50)    
Moisture  
Dew Point 72 °F    
Average Humidity 74    
Maximum Humidity 87    
Minimum Humidity 63    
Precipitation  
Precipitation 0.12 in - - ()
Sea Level Pressure  
Sea Level Pressure 30.03 in    
Wind  
Wind Speed 9 mph (ESE)    
Max Wind Speed 17 mph    
Max Gust Speed 22 mph    
Visibility 10 miles    
Events Rain    
Averages and records for this station are not official NWS values.
T = Trace of Precipitation, MM = Missing Value Source: NWS Daily Summary

Daily Weather History Graph

Daily Weather History Graph

Search for Another Location

Airport or City:

Trip Planner

Search our weather history database for the weather conditions in past years. The results will help you decide how hot, cold, wet, or windy it might be!

Date:

Astronomy

Aug. 09, 2013 Rise Set
Actual Time 6:50 AM EDT 8:01 PM EDT
Civil Twilight 6:26 AM EDT 8:25 PM EDT
Nautical Twilight 5:57 AM EDT 8:54 PM EDT
Astronomical Twilight 5:27 AM EDT 9:24 PM EDT
Moon 9:13 AM EDT (8/9) 9:35 PM EDT (8/9)
Length of Visible Light 13h 59m
Length of Day
13h 10m
Waxing Crescent, 7% of the Moon is Illuminated
Aug 9
Waxing Crescent
Aug 14
First Quarter
Aug 20
Full
Aug 28
Last Quarter
Sep 5
New

Hourly Weather History & Observations

Time (EDT) Temp. Heat Index Dew Point Humidity Pressure Visibility Wind Dir Wind Speed Gust Speed Precip Events Conditions
12:53 AM 82.0 °F 88.6 °F 75.0 °F 79% 30.03 in 10.0 mi East 10.4 mph - N/A   Partly Cloudy
1:53 AM 81.0 °F 86.2 °F 73.9 °F 79% 30.02 in 10.0 mi East 9.2 mph - N/A   Partly Cloudy
2:53 AM 81.0 °F 85.8 °F 73.0 °F 77% 30.00 in 10.0 mi East 8.1 mph - N/A   Clear
3:53 AM 81.0 °F 85.8 °F 73.0 °F 77% 30.00 in 8.0 mi ESE 8.1 mph - 0.04 in   Partly Cloudy
4:53 AM 77.0 °F - 72.0 °F 84% 29.99 in 10.0 mi SE 5.8 mph - 0.06 in   Clear
5:53 AM 78.1 °F - 73.9 °F 87% 29.98 in 10.0 mi East 4.6 mph - N/A   Clear
6:53 AM 75.9 °F - 71.1 °F 85% 29.99 in 7.0 mi South 6.9 mph - 0.02 in Rain Light Rain
7:53 AM 80.1 °F 84.5 °F 73.9 °F 81% 30.00 in 10.0 mi East 3.5 mph - 0.00 in   Clear
8:53 AM 82.0 °F 87.4 °F 73.0 °F 74% 30.02 in 10.0 mi ESE 8.1 mph - N/A   Clear
9:33 AM 82.4 °F 89.5 °F 75.2 °F 79% 30.03 in 10.0 mi SE 8.1 mph - 0.00 in   Mostly Cloudy
9:53 AM 86.0 °F 93.8 °F 73.9 °F 67% 30.04 in 10.0 mi ESE 16.1 mph 21.9 mph 0.00 in   Scattered Clouds
10:53 AM 84.9 °F 91.4 °F 73.0 °F 67% 30.04 in 10.0 mi ESE 11.5 mph - N/A   Partly Cloudy
11:53 AM 87.1 °F 94.5 °F 73.0 °F 63% 30.04 in 10.0 mi SE 13.8 mph - N/A   Partly Cloudy
12:53 PM 84.0 °F 91.2 °F 73.9 °F 72% 30.06 in 10.0 mi SSE 13.8 mph - N/A   Partly Cloudy
1:53 PM 81.0 °F 85.2 °F 72.0 °F 74% 30.07 in 10.0 mi ESE 17.3 mph 20.7 mph 0.00 in Rain Light Rain
2:53 PM 84.0 °F 89.0 °F 71.1 °F 65% 30.06 in 10.0 mi ESE 15.0 mph 21.9 mph 0.00 in   Partly Cloudy
3:53 PM 84.9 °F 90.1 °F 71.1 °F 63% 30.03 in 10.0 mi ESE 12.7 mph - N/A   Partly Cloudy
4:53 PM 84.9 °F 91.4 °F 73.0 °F 67% 30.03 in 10.0 mi ESE 17.3 mph - N/A   Mostly Cloudy
5:53 PM 82.9 °F 87.5 °F 71.1 °F 67% 30.03 in 10.0 mi ESE 15.0 mph - N/A   Partly Cloudy
6:53 PM 82.0 °F 86.3 °F 71.1 °F 69% 30.03 in 10.0 mi ESE 12.7 mph - N/A   Clear
7:53 PM 81.0 °F 85.2 °F 72.0 °F 74% 30.05 in 10.0 mi SE 10.4 mph - N/A   Clear
8:53 PM 80.1 °F 83.2 °F 70.0 °F 71% 30.06 in 10.0 mi SE 3.5 mph - N/A   Clear
9:53 PM 80.1 °F 82.9 °F 69.1 °F 69% 30.08 in 10.0 mi Calm Calm - N/A   Clear
10:53 PM 79.0 °F - 69.1 °F 72% 30.08 in 10.0 mi East 3.5 mph - N/A   Clear
11:53 PM 79.0 °F - 71.1 °F 77% 30.08 in 10.0 mi ENE 4.6 mph - N/A   Clear